Weather History for Wooster, OH

Change the Weather History Date:

Saturday, July 20, 2013

  Actual Average Record
Temperature  
Mean Temperature 72 °F -  
Max Temperature 78 °F 79 °F 91 °F (2011)
Min Temperature 66 °F 58 °F 50 °F (1997)
Cooling Degree Days 6    
Growing Degree Days 22 (Base 50)    
Moisture  
Dew Point 67 °F    
Average Humidity 88    
Maximum Humidity 100    
Minimum Humidity 74    
Precipitation  
Precipitation 0.63 in - - ()
Sea Level Pressure  
Sea Level Pressure 29.89 in    
Wind  
Wind Speed 8 mph (WSW)    
Max Wind Speed 18 mph    
Max Gust Speed 25 mph    
Visibility 8 miles    
Events Rain , Thunderstorm    
Averages and records for this station are not official NWS values.
T = Trace of Precipitation, MM = Missing Value Source: NWS Daily Summary

Daily Weather History Graph

Daily Weather History Graph

Search for Another Location

Airport:

Trip Planner

Search our weather history database for the weather conditions in past years. The results will help you decide how hot, cold, wet, or windy it might be!

Date:

Astronomy

Jul. 20, 2013 Rise Set
Actual Time 6:13 AM EDT 8:54 PM EDT
Civil Twilight 5:41 AM EDT 9:26 PM EDT
Nautical Twilight 5:00 AM EDT 10:06 PM EDT
Astronomical Twilight 4:15 AM EDT 10:51 PM EDT
Moon 6:56 PM EDT (7/20) 3:51 AM EDT (7/20)
Length of Visible Light 15h 45m
Length of Day
14h 41m
Waxing Gibbous, 93% of the Moon is Illuminated
Jul 20
Waxing Gibbous
Jul 22
Full
Jul 29
Last Quarter
Aug 6
New
Aug 14
First Quarter

Hourly Weather History & Observations

Time (EDT) Temp. Dew Point Humidity Pressure Visibility Wind Dir Wind Speed Gust Speed Precip Events Conditions
12:56 AM 73.9 °F 70.0 °F 87% 29.88 in 5.0 mi SSW 5.8 mph - N/A   Clear
1:56 AM 73.0 °F 70.0 °F 90% 29.85 in 4.0 mi SW 10.4 mph - N/A   Clear
2:56 AM 73.0 °F 71.1 °F 93% 29.83 in 4.0 mi WSW 9.2 mph - N/A   Clear
3:56 AM 73.0 °F 71.1 °F 93% 29.84 in 4.0 mi WSW 8.1 mph - N/A   Clear
4:56 AM 73.0 °F 71.1 °F 93% 29.85 in 4.0 mi SW 6.9 mph - N/A   Overcast
5:24 AM 69.8 °F 66.2 °F 88% 29.89 in 10.0 mi NNW 9.2 mph 20.7 mph 0.05 in Rain Light Rain
5:35 AM 69.8 °F 66.2 °F 88% 29.89 in 10.0 mi NNW 10.4 mph 16.1 mph 0.05 in Thunderstorm Overcast
5:56 AM 68.0 °F 64.9 °F 90% 29.88 in 10.0 mi North 3.5 mph - 0.05 in   Mostly Cloudy
6:56 AM 68.0 °F 64.9 °F 90% 29.91 in 10.0 mi WNW 9.2 mph - 0.00 in Rain Light Rain
7:21 AM 68.0 °F 64.4 °F 88% 29.94 in 2.5 mi West 13.8 mph 20.7 mph 0.08 in Rain , Thunderstorm Heavy Thunderstorms and Rain
7:29 AM 68.0 °F 66.2 °F 94% 29.92 in 1.0 mi West 6.9 mph - 0.16 in Rain , Thunderstorm Heavy Thunderstorms and Rain
7:33 AM 68.0 °F 66.2 °F 94% 29.92 in 1.2 mi West 9.2 mph - 0.16 in Rain Rain
7:36 AM 66.2 °F 66.2 °F 100% 29.92 in 3.0 mi West 8.1 mph - 0.16 in Rain Light Rain
7:56 AM 66.9 °F 64.9 °F 93% 29.91 in 10.0 mi West 9.2 mph - 0.17 in Thunderstorm Overcast
8:30 AM 66.2 °F 64.4 °F 94% 29.93 in 3.0 mi SSW 3.5 mph - 0.03 in Rain Rain
8:56 AM 66.9 °F 64.9 °F 93% 29.91 in 10.0 mi Calm Calm - 0.05 in Rain Light Rain
9:29 AM 66.2 °F 64.4 °F 94% 29.95 in 2.5 mi Calm Calm - 0.06 in Rain Rain
9:40 AM 66.2 °F 64.4 °F 94% 29.94 in 4.0 mi South 3.5 mph - 0.09 in Rain Rain
9:56 AM 66.9 °F 66.0 °F 97% 29.91 in 6.0 mi South 3.5 mph - 0.11 in Rain Light Rain
10:41 AM 68.0 °F 64.4 °F 88% 29.89 in 7.0 mi SW 12.7 mph - 0.10 in Rain , Thunderstorm Light Thunderstorms and Rain
10:56 AM 68.0 °F 66.0 °F 93% 29.86 in 5.0 mi SW 13.8 mph 20.7 mph 0.13 in Rain Rain
11:10 AM 68.0 °F 66.2 °F 94% 29.86 in 6.0 mi SSW 18.4 mph 25.3 mph 0.03 in Rain , Thunderstorm Rain
11:32 AM 69.8 °F 66.2 °F 88% 29.90 in 9.0 mi SW 11.5 mph 20.7 mph 0.06 in Rain Light Rain
11:56 AM 69.1 °F 66.9 °F 93% 29.86 in 10.0 mi SW 11.5 mph 20.7 mph 0.07 in Rain , Thunderstorm Light Thunderstorms and Rain
12:24 PM 69.8 °F 66.2 °F 88% 29.86 in 8.0 mi SSW 11.5 mph 19.6 mph 0.04 in Rain Rain
12:56 PM 71.1 °F 66.9 °F 87% 29.86 in 10.0 mi SW 12.7 mph 18.4 mph 0.05 in   Clear
1:56 PM 73.9 °F 68.0 °F 82% 29.89 in 10.0 mi WSW 9.2 mph - N/A   Scattered Clouds
2:56 PM 73.9 °F 68.0 °F 82% 29.88 in 10.0 mi West 4.6 mph - N/A   Clear
3:31 PM 75.2 °F 69.8 °F 83% 29.90 in 10.0 mi WSW 9.2 mph - N/A   Mostly Cloudy
3:56 PM 75.9 °F 68.0 °F 76% 29.87 in 10.0 mi West 6.9 mph - N/A   Mostly Cloudy
4:04 PM 77.0 °F 68.0 °F 74% 29.90 in 10.0 mi West 8.1 mph - N/A   Mostly Cloudy
4:56 PM 77.0 °F 68.0 °F 74% 29.88 in 10.0 mi West 4.6 mph - N/A   Partly Cloudy
5:36 PM 77.0 °F 68.0 °F 74% 29.90 in 10.0 mi SW 5.8 mph - N/A   Mostly Cloudy
5:56 PM 77.0 °F 68.0 °F 74% 29.88 in 10.0 mi SSW 5.8 mph - N/A   Overcast
6:09 PM 77.0 °F 68.0 °F 74% 29.89 in 10.0 mi SSW 6.9 mph - N/A   Mostly Cloudy
6:56 PM 75.9 °F 69.1 °F 79% 29.87 in 10.0 mi SSW 5.8 mph - N/A   Clear
7:56 PM 73.9 °F 69.1 °F 85% 29.89 in 10.0 mi South 5.8 mph - N/A   Partly Cloudy
8:56 PM 73.0 °F 69.1 °F 87% 29.89 in 10.0 mi SW 3.5 mph - N/A   Scattered Clouds
9:56 PM 72.0 °F 70.0 °F 93% 29.91 in 9.0 mi SSW 5.8 mph - 0.00 in Rain Light Rain
10:56 PM 71.1 °F 69.1 °F 93% 29.93 in 10.0 mi SW 3.5 mph - 0.00 in   Partly Cloudy
11:56 PM 71.1 °F 69.1 °F 93% 29.94 in 10.0 mi Calm Calm - 0.00 in Rain Light Rain